Vorticity
nan nan nan nan nan nan nan nan nan nan nan nan nan nan nan nan nan nan nan nan nan nan nan nan nan nan nan nan nan nan nan nan nan nan nan nan nan nan nan nan nan nan nan nan nan nan nan
nan 7 6 7 7 6 6 7 7 7 6 6 7 7 8 7 7 7 7 6 6 7 4 7 8 14 8 -2 10 7 4 11 12 5 5 5 6 6 8 7 4 5 6 8 9 12 nan
nan 6 6 7 7 7 7 8 7 6 6 6 7 7 7 7 7 7 7 7 6 5 5 7 11 13 8 12 1 1 5 9 6 2 4 3 7 4 6 12 14 8 8 12 13 10 nan
nan 7 7 8 8 8 7 7 7 6 6 7 7 7 7 8 8 7 7 8 7 6 7 11 8 9 7 15 10 11 13 9 10 10 9 9 10 7 7 6 8 10 10 9 8 8 nan
nan 15 12 10 9 8 7 6 7 7 7 7 7 8 7 8 7 7 8 10 9 10 10 9 9 9 5 6 17 18 14 7 11 15 12 13 13 9 5 9 5 13 7 3 11 11 nan
nan 17 19 18 17 16 13 12 11 11 12 13 10 10 8 10 13 13 11 11 11 12 16 9 7 6 12 10 8 12 16 14 4 8 12 12 9 6 4 11 7 3 4 7 7 3 nan
nan 12 14 16 18 19 20 19 18 19 17 17 20 20 19 16 15 14 10 9 13 15 12 8 -1 -7 -1 6 -3 -0 0 12 17 10 8 6 5 8 4 -0 6 2 1 2 1 5 nan
nan 5 9 10 9 12 14 13 14 12 12 12 13 13 15 14 11 6 8 9 6 8 15 14 2 6 4 -1 -0 -1 0 1 5 2 5 8 9 7 7 6 6 4 5 3 4 11 nan
nan 4 4 5 9 10 7 6 5 5 6 4 5 5 5 5 4 6 8 6 8 11 16 17 16 13 21 17 12 13 4 3 8 2 6 3 12 7 3 4 10 5 9 6 4 7 nan
nan 6 5 5 5 7 9 12 15 12 8 7 5 4 4 5 7 8 9 7 9 11 11 14 15 18 18 8 19 32 20 8 4 13 13 12 14 6 8 5 4 3 10 7 7 11 nan
nan 6 7 7 9 8 6 6 8 9 12 18 15 7 7 3 8 11 10 9 8 9 9 13 12 14 18 4 2 17 30 21 8 5 5 7 10 18 13 11 3 12 11 10 9 14 nan
nan 14 13 14 10 4 1 0 1 0 6 8 13 19 9 5 8 12 9 7 8 8 8 8 13 8 8 4 3 9 9 13 22 16 1 4 -3 5 9 10 6 9 17 21 16 7 nan
nan 17 13 11 4 3 4 5 4 2 2 2 4 16 13 6 10 12 6 6 7 4 9 15 11 10 7 11 6 6 8 6 8 13 15 20 17 9 6 1 9 3 7 13 17 10 nan
nan 10 12 11 6 5 5 6 7 6 7 6 6 9 12 9 11 8 5 9 12 10 -0 4 11 10 10 7 10 8 6 4 5 6 10 9 21 25 22 18 10 9 1 2 6 7 nan
nan 4 8 6 10 12 10 10 10 9 8 9 10 10 8 12 12 7 8 7 6 5 7 8 8 11 8 9 11 13 10 10 9 9 5 6 7 10 15 22 13 10 15 7 5 7 nan
nan 7 6 5 6 9 9 10 14 14 11 7 7 10 12 13 8 9 12 11 7 0 -0 11 12 13 12 10 9 6 5 17 16 6 9 8 12 8 10 15 20 17 11 13 15 12 nan
nan 9 10 10 5 4 9 13 11 9 10 8 5 8 12 11 8 12 11 12 10 4 7 7 7 5 7 8 12 15 9 4 9 18 11 7 7 5 8 11 12 14 10 12 10 10 nan
nan 13 9 4 11 12 5 8 10 9 9 9 8 9 11 9 5 7 11 8 10 16 14 5 5 11 12 7 5 9 11 7 11 13 11 10 8 14 8 5 7 9 12 10 10 11 nan
nan 10 13 14 10 8 12 13 10 11 5 4 10 9 10 8 10 7 8 9 8 12 15 13 15 13 7 6 10 11 4 5 9 10 14 12 10 7 10 12 8 10 8 6 12 11 nan
nan 9 10 10 11 11 13 15 12 8 8 5 8 11 10 10 7 6 8 12 9 7 9 9 15 13 10 12 9 10 11 10 8 8 3 8 11 11 10 3 5 9 8 2 -1 2 nan
nan 10 9 10 11 10 11 11 11 11 8 5 10 11 11 11 11 10 10 8 10 11 11 7 7 9 5 8 12 12 13 9 12 7 4 6 5 7 12 4 6 4 4 7 5 4 nan
nan 12 8 11 11 10 11 12 13 11 6 3 10 8 10 8 12 18 11 5 8 17 18 11 13 9 5 9 5 7 13 9 12 11 3 5 11 9 8 14 10 12 10 11 10 7 nan
nan 9 13 12 12 12 10 11 14 8 1 5 9 10 9 8 10 13 9 4 -2 10 14 6 9 18 18 8 11 11 6 6 6 15 11 8 9 9 11 16 11 15 19 9 9 11 nan
nan 8 12 13 13 13 12 12 13 10 -2 2 9 12 9 10 11 6 8 7 7 11 8 11 13 9 11 22 19 10 11 8 4 6 12 10 8 7 12 11 10 6 16 19 12 7 nan
nan 12 11 14 11 15 14 10 11 11 -3 0 10 10 10 11 9 8 11 16 17 10 12 13 12 14 14 16 11 12 14 15 16 11 11 5 7 8 11 5 5 16 16 18 13 11 nan
nan 13 10 13 14 16 12 10 11 9 0 1 9 9 10 11 9 10 13 14 14 9 13 11 9 7 10 14 15 11 10 9 14 22 18 8 4 4 10 9 8 11 12 11 9 13 nan
nan 13 9 12 15 16 13 9 10 10 4 1 10 9 9 10 8 8 10 8 9 11 10 9 14 13 8 8 11 11 10 11 10 10 17 18 11 9 6 6 5 8 14 11 7 11 nan
nan 16 10 11 17 15 14 11 5 7 6 4 11 10 9 9 12 13 4 2 8 13 12 9 9 11 11 13 11 10 10 12 11 10 12 15 13 11 11 10 9 8 11 12 11 12 nan
nan nan nan nan nan nan nan nan nan nan nan nan nan nan nan nan nan nan nan nan nan nan nan nan nan nan nan nan nan nan nan nan nan nan nan nan nan nan nan nan nan nan nan nan nan nan nan
CAPE
0 0 0 0 0 0 0 0 0 0 0 0 0 0 0 0 0 0 0 0 0 0 0 0 0 0 0 0 0 0 0 0 0 0 0 0 0 0 0 0 0 0 0 0 0 0 0
0 0 0 0 0 0 0 0 0 0 0 0 0 0 0 0 0 0 0 0 0 0 0 0 0 0 0 0 0 0 0 0 0 0 0 0 0 0 0 0 0 0 0 0 0 0 0
0 0 0 0 0 0 0 0 0 0 0 0 0 0 0 0 0 0 0 0 0 0 0 0 0 0 0 0 0 0 0 0 0 0 0 0 0 0 0 0 0 0 0 0 0 0 0
0 0 0 0 0 0 0 0 0 0 0 0 0 0 0 0 0 0 0 0 0 0 0 0 0 0 0 0 0 0 0 0 0 0 0 0 0 0 0 0 0 0 0 0 0 0 0
0 0 0 0 0 0 0 0 0 0 0 0 0 0 0 0 0 0 0 0 0 0 0 0 1 0 0 0 0 0 0 0 0 0 0 0 0 0 0 0 0 0 0 0 0 0 0
0 0 0 0 0 0 0 0 0 0 0 0 0 0 0 0 0 0 0 0 0 0 0 0 3 2 0 0 0 0 0 0 0 0 0 0 0 0 0 0 0 0 0 0 0 0 0
2 3 1 0 0 0 0 0 0 0 0 0 1 0 0 0 0 0 0 0 0 0 0 0 0 0 0 0 0 0 0 0 0 0 0 0 0 0 0 0 0 0 0 0 0 0 0
1 1 2 2 2 3 2 0 0 0 0 0 0 0 0 0 0 0 0 0 0 0 0 0 0 0 0 0 0 0 0 0 0 0 0 0 0 0 0 0 0 0 0 0 0 0 0
0 4 3 2 3 5 7 0 0 0 0 0 0 0 0 0 0 0 0 0 0 0 0 0 0 0 0 0 0 0 0 0 0 0 0 0 0 0 0 0 0 0 0 0 0 0 0
4 4 4 5 3 5 3 2 3 3 0 0 0 0 0 0 0 0 0 0 0 0 2 0 0 0 0 2 0 0 0 0 0 0 0 0 0 0 0 0 0 0 0 0 0 0 0
9 4 10 5 5 1 1 2 5 4 2 1 0 0 0 0 0 0 0 0 0 0 0 0 0 0 0 0 0 0 0 0 0 0 0 0 0 0 0 0 0 0 0 0 0 0 0
44 35 20 22 4 0 0 0 0 0 1 4 1 1 0 1 0 0 0 0 0 4 0 0 0 0 0 0 0 0 0 0 0 0 0 0 0 0 0 0 0 0 0 0 0 0 0
23 45 39 28 4 2 3 3 1 0 0 1 6 2 6 0 0 0 0 0 1 1 0 0 0 0 0 0 0 0 0 0 0 0 0 0 0 0 0 0 0 0 0 0 0 2 0
17 18 24 19 6 2 1 2 3 4 1 3 9 2 0 15 0 0 3 10 0 0 0 0 0 0 0 0 0 0 0 0 0 0 0 0 0 0 0 0 0 0 0 0 3 0 0
3 18 15 14 23 29 21 20 24 14 9 16 40 18 2 0 0 3 13 0 0 0 0 0 0 0 0 0 0 0 0 0 0 0 0 0 0 0 0 0 0 0 0 0 0 0 0
23 20 17 23 12 18 29 18 49 63 54 45 15 31 1 0 3 6 5 0 0 0 0 0 1 2 1 0 1 0 0 0 5 1 0 0 0 0 0 0 0 0 0 0 0 0 0
43 24 38 44 20 5 30 41 73 82 78 71 41 33 0 0 0 6 0 0 1 0 0 2 13 8 5 0 0 12 0 0 0 0 0 0 0 0 0 0 0 0 0 3 6 3 0
95 76 23 17 39 26 8 22 51 36 58 55 23 11 0 6 4 0 0 6 0 0 1 0 0 3 3 0 3 20 68 0 0 0 1 0 0 0 0 0 0 1 5 6 5 1 3
87 102 113 87 34 73 86 55 54 31 49 38 19 9 0 44 34 2 4 7 10 8 3 21 30 12 1 16 1 3 0 2 0 0 5 0 1 0 0 0 2 3 8 8 3 2 1
102 94 86 89 107 102 98 91 61 36 70 31 9 7 7 53 19 46 19 15 27 3 11 12 15 13 8 17 16 0 3 4 2 2 2 4 1 0 0 0 0 0 5 1 0 0 0
116 111 109 84 128 136 166 127 80 52 60 18 3 3 0 4 7 13 18 59 37 37 13 2 9 6 7 7 16 15 2 0 9 8 0 0 0 0 0 0 0 0 0 0 1 0 0
182 120 99 120 125 131 119 167 186 137 73 4 0 6 7 0 0 0 1 37 7 6 5 0 14 9 15 7 1 6 5 4 11 17 1 1 0 0 0 0 0 2 0 0 0 0 0
14 4 69 92 154 71 107 184 232 163 23 6 5 2 7 1 0 0 0 18 15 11 5 7 6 7 2 4 3 17 13 7 16 13 1 15 7 2 0 0 0 10 0 0 0 0 0
62 8 16 70 79 80 134 181 163 166 10 0 0 0 17 0 0 0 0 0 2 0 8 0 20 14 27 7 12 15 17 3 2 6 8 15 1 0 0 0 0 0 0 0 0 0 0
56 64 2 36 81 112 164 174 153 119 70 0 0 0 3 0 0 0 2 2 3 0 14 53 21 19 2 3 3 14 29 15 2 0 0 7 11 0 0 0 0 0 0 0 0 0 0
63 84 55 36 109 111 152 125 159 140 15 0 0 0 8 37 20 38 7 26 7 5 10 4 1 0 2 7 6 0 8 3 1 0 0 4 0 0 0 0 0 0 0 0 0 0 0
113 75 14 0 54 104 153 133 56 72 29 1 0 0 5 19 3 24 18 5 7 16 2 9 18 11 12 1 0 4 1 0 0 2 0 2 2 0 0 0 0 0 0 12 0 0 0
152 52 83 1 40 112 151 149 28 22 21 7 3 0 0 5 0 1 0 0 0 0 0 0 0 0 0 0 0 1 0 0 0 0 0 4 26 5 6 9 6 0 13 32 0 0 0
169 74 86 13 40 98 144 152 33 80 54 16 3 0 0 7 0 3 0 0 0 0 0 0 6 6 0 0 0 0 0 0 0 0 0 9 0 0 0 0 0 0 0 0 5 0 0